owner,sensor,date,latitude,longitude,vertical_datum,direction_of_sea_water_velocity,sea_water_speed,upward_sea_water_velocity,qcFlag 
TABS,ioos:station:wmo:42045:1,2004-10-01T00:00:00Z,26.2168,-96.4998,2.0,44.60844188,14.48188524,-99999.0,'11111222,11111222,99999999' 
TABS,ioos:station:wmo:42045:1,2004-10-01T00:30:00Z,26.2168,-96.4998,2.0,22.02484805,10.95982208,-99999.0,'11111222,11111222,99999999' 
TABS,ioos:station:wmo:42045:1,2004-10-01T01:00:00Z,26.2168,-96.4998,2.0,19.82977522,10.52401539,-99999.0,'11111222,11111222,99999999' 
TABS,ioos:station:wmo:42045:1,2004-10-01T01:30:00Z,26.2168,-96.4998,2.0,9.221639009,11.7316154,-99999.0,'11111222,11111222,99999999' 
TABS,ioos:station:wmo:42045:1,2004-10-01T02:00:00Z,26.2168,-96.4998,2.0,356.755205,12.1895447,-99999.0,'11111222,11111222,99999999' 
TABS,ioos:station:wmo:42045:1,2004-10-01T02:30:00Z,26.2168,-96.4998,2.0,336.0899171,10.04177773,-99999.0,'11111222,11111222,99999999' 
TABS,ioos:station:wmo:42045:1,2004-10-01T03:00:00Z,26.2168,-96.4998,2.0,337.5990451,8.86929535,-99999.0,'11133222,11111222,99999999' 
TABS,ioos:station:wmo:42045:1,2004-10-01T03:30:00Z,26.2168,-96.4998,2.0,343.2439431,10.57919657,-99999.0,'11111222,11111222,99999999' 
TABS,ioos:station:wmo:42045:1,2004-10-01T04:00:00Z,26.2168,-96.4998,2.0,328.5077586,12.07915974,-99999.0,'11111222,11111222,99999999' 
TABS,ioos:station:wmo:42045:1,2004-10-01T04:30:00Z,26.2168,-96.4998,2.0,312.8425392,13.89743142,-99999.0,'11111222,11111222,99999999' 
TABS,ioos:station:wmo:42045:1,2004-10-01T05:00:00Z,26.2168,-96.4998,2.0,310.7757825,16.41411892,-99999.0,'11111222,11111222,99999999' 
TABS,ioos:station:wmo:42045:1,2004-10-01T05:30:00Z,26.2168,-96.4998,2.0,307.3474476,16.08855805,-99999.0,'11111222,11111222,99999999' 
TABS,ioos:station:wmo:42045:1,2004-10-01T06:00:00Z,26.2168,-96.4998,2.0,308.5710453,21.09129204,-99999.0,'11111222,11111222,99999999' 
TABS,ioos:station:wmo:42045:1,2004-10-01T06:30:00Z,26.2168,-96.4998,2.0,306.2530967,28.59565876,-99999.0,'11111222,11111222,99999999' 
TABS,ioos:station:wmo:42045:1,2004-10-01T07:00:00Z,26.2168,-96.4998,2.0,310.2272833,32.20726781,-99999.0,'11111222,11111222,99999999' 
TABS,ioos:station:wmo:42045:1,2004-10-01T07:30:00Z,26.2168,-96.4998,2.0,306.7156435,28.16810253,-99999.0,'11111222,11111222,99999999' 
TABS,ioos:station:wmo:42045:1,2004-10-01T08:00:00Z,26.2168,-96.4998,2.0,326.8715116,26.33010824,-99999.0,'11111222,11111222,99999999' 
TABS,ioos:station:wmo:42045:1,2004-10-01T08:30:00Z,26.2168,-96.4998,2.0,322.3231371,28.95887429,-99999.0,'11111222,11111222,99999999' 
TABS,ioos:station:wmo:42045:1,2004-10-01T09:00:00Z,26.2168,-96.4998,2.0,318.091097,26.753411,-99999.0,'11111222,11111222,99999999' 
TABS,ioos:station:wmo:42045:1,2004-10-01T09:30:00Z,26.2168,-96.4998,2.0,356.2972431,57.28960551,-99999.0,'11111222,11111222,99999999' 
TABS,ioos:station:wmo:42045:1,2004-10-01T10:00:00Z,26.2168,-96.4998,2.0,2.91576467,55.44176494,-99999.0,'11111222,11111222,99999999' 
TABS,ioos:station:wmo:42045:1,2004-10-01T10:30:00Z,26.2168,-96.4998,2.0,4.720915057,54.31425043,-99999.0,'11111222,11111222,99999999' 
TABS,ioos:station:wmo:42045:1,2004-10-01T11:00:00Z,26.2168,-96.4998,2.0,14.52081977,56.51524573,-99999.0,'11111222,11111222,99999999' 
TABS,ioos:station:wmo:42045:1,2004-10-01T11:30:00Z,26.2168,-96.4998,2.0,16.6744706,52.80017898,-99999.0,'11111222,11111222,99999999' 
TABS,ioos:station:wmo:42045:1,2004-10-01T12:00:00Z,26.2168,-96.4998,2.0,14.66070438,47.41367841,-99999.0,'11111222,11111222,99999999' 
TABS,ioos:station:wmo:42045:1,2004-10-01T12:30:00Z,26.2168,-96.4998,2.0,21.20313323,59.91601205,-99999.0,'11111222,11111222,99999999' 
TABS,ioos:station:wmo:42045:1,2004-10-01T13:00:00Z,26.2168,-96.4998,2.0,21.38864356,63.6431591,-99999.0,'11111222,11111222,99999999' 
TABS,ioos:station:wmo:42045:1,2004-10-01T13:30:00Z,26.2168,-96.4998,2.0,24.7246101,67.11219338,-99999.0,'11111222,11111222,99999999' 
TABS,ioos:station:wmo:42045:1,2004-10-01T14:00:00Z,26.2168,-96.4998,2.0,34.38897468,70.27187346,-99999.0,'11111222,11111222,99999999' 
TABS,ioos:station:wmo:42045:1,2004-10-01T14:30:00Z,26.2168,-96.4998,2.0,40.86279631,62.52977051,-99999.0,'11111222,11111222,99999999' 
TABS,ioos:station:wmo:42045:1,2004-10-01T15:00:00Z,26.2168,-96.4998,2.0,48.51712336,66.04795909,-99999.0,'11111222,11111222,99999999' 
TABS,ioos:station:wmo:42045:1,2004-10-01T15:30:00Z,26.2168,-96.4998,2.0,56.93087833,60.4048508,-99999.0,'11111222,11111222,99999999' 
TABS,ioos:station:wmo:42045:1,2004-10-01T16:00:00Z,26.2168,-96.4998,2.0,57.22827965,62.12885401,-99999.0,'11111222,11111222,99999999' 
TABS,ioos:station:wmo:42045:1,2004-10-01T16:30:00Z,26.2168,-96.4998,2.0,58.32028117,69.57726425,-99999.0,'11111222,11111222,99999999' 
TABS,ioos:station:wmo:42045:1,2004-10-01T17:00:00Z,26.2168,-96.4998,2.0,64.70233369,61.87371978,-99999.0,'11111222,11111222,99999999' 
TABS,ioos:station:wmo:42045:1,2004-10-01T17:30:00Z,26.2168,-96.4998,2.0,69.17301048,61.37004155,-99999.0,'11111222,11111222,99999999' 
TABS,ioos:station:wmo:42045:1,2004-10-01T18:00:00Z,26.2168,-96.4998,2.0,74.11408843,55.60358622,-99999.0,'11111222,11111222,99999999' 
TABS,ioos:station:wmo:42045:1,2004-10-01T18:30:00Z,26.2168,-96.4998,2.0,74.52434182,51.94326905,-99999.0,'11111222,11111222,99999999' 
TABS,ioos:station:wmo:42045:1,2004-10-01T19:00:00Z,26.2168,-96.4998,2.0,74.91886172,52.00100961,-99999.0,'11111222,11111222,99999999' 
TABS,ioos:station:wmo:42045:1,2004-10-01T19:30:00Z,26.2168,-96.4998,2.0,77.42363487,50.93203511,-99999.0,'11111222,11111222,99999999' 
TABS,ioos:station:wmo:42045:1,2004-10-01T20:00:00Z,26.2168,-96.4998,2.0,80.68302659,48.61129293,-99999.0,'11111222,11111222,99999999' 
TABS,ioos:station:wmo:42045:1,2004-10-01T20:30:00Z,26.2168,-96.4998,2.0,81.3406624,45.16483699,-99999.0,'11111222,11111222,99999999' 
TABS,ioos:station:wmo:42045:1,2004-10-01T21:00:00Z,26.2168,-96.4998,2.0,77.55687591,43.53256827,-99999.0,'11111222,11111222,99999999' 
TABS,ioos:station:wmo:42045:1,2004-10-01T21:30:00Z,26.2168,-96.4998,2.0,79.39049485,41.71309626,-99999.0,'11111222,11111222,99999999' 
TABS,ioos:station:wmo:42045:1,2004-10-01T22:00:00Z,26.2168,-96.4998,2.0,80.43522001,40.44221557,-99999.0,'11111222,11111222,99999999' 
TABS,ioos:station:wmo:42045:1,2004-10-01T22:30:00Z,26.2168,-96.4998,2.0,84.05315085,38.1251741,-99999.0,'11111222,11111222,99999999' 
TABS,ioos:station:wmo:42045:1,2004-10-01T23:00:00Z,26.2168,-96.4998,2.0,83.63006275,36.14313904,-99999.0,'11111222,11111222,99999999' 
TABS,ioos:station:wmo:42045:1,2004-10-01T23:30:00Z,26.2168,-96.4998,2.0,85.28583019,30.7841404,-99999.0,'11111222,11111222,99999999' 
TABS,ioos:station:wmo:42045:1,2004-10-02T00:00:00Z,26.2168,-96.4998,2.0,80.62847638,30.0916284,-99999.0,'11111222,11111222,99999999' 
TABS,ioos:station:wmo:42045:1,2004-10-02T00:30:00Z,26.2168,-96.4998,2.0,67.97543095,22.87969624,-99999.0,'11111222,11111222,99999999' 
TABS,ioos:station:wmo:42045:1,2004-10-02T01:00:00Z,26.2168,-96.4998,2.0,68.5747563,28.00531735,-99999.0,'11111222,11111222,99999999' 
TABS,ioos:station:wmo:42045:1,2004-10-02T01:30:00Z,26.2168,-96.4998,2.0,62.21434796,30.43979303,-99999.0,'11111222,11111222,99999999' 
TABS,ioos:station:wmo:42045:1,2004-10-02T02:00:00Z,26.2168,-96.4998,2.0,74.22826402,24.02447294,-99999.0,'11111222,11111222,99999999' 
TABS,ioos:station:wmo:42045:1,2004-10-02T02:30:00Z,26.2168,-96.4998,2.0,61.11724623,23.00112389,-99999.0,'11111222,11111222,99999999' 
TABS,ioos:station:wmo:42045:1,2004-10-02T03:00:00Z,26.2168,-96.4998,2.0,68.8715827,19.44735715,-99999.0,'11111222,11111222,99999999' 
TABS,ioos:station:wmo:42045:1,2004-10-02T03:30:00Z,26.2168,-96.4998,2.0,54.83135623,18.59419533,-99999.0,'11111222,11111222,99999999' 
TABS,ioos:station:wmo:42045:1,2004-10-02T04:00:00Z,26.2168,-96.4998,2.0,50.96854425,15.16479146,-99999.0,'11111222,11111222,99999999' 
TABS,ioos:station:wmo:42045:1,2004-10-02T04:30:00Z,26.2168,-96.4998,2.0,46.53444314,15.84487299,-99999.0,'11111222,11111222,99999999' 
TABS,ioos:station:wmo:42045:1,2004-10-02T05:00:00Z,26.2168,-96.4998,2.0,47.38604368,13.92793596,-99999.0,'11111222,11111222,99999999' 
TABS,ioos:station:wmo:42045:1,2004-10-02T05:30:00Z,26.2168,-96.4998,2.0,40.13331213,15.00232649,-99999.0,'11111222,11111222,99999999' 
TABS,ioos:station:wmo:42045:1,2004-10-02T06:00:00Z,26.2168,-96.4998,2.0,34.28803195,20.99931904,-99999.0,'11111222,11111222,99999999' 
TABS,ioos:station:wmo:42045:1,2004-10-02T06:30:00Z,26.2168,-96.4998,2.0,39.14954229,19.0070408,-99999.0,'11111222,11111222,99999999' 
TABS,ioos:station:wmo:42045:1,2004-10-02T07:00:00Z,26.2168,-96.4998,2.0,32.16635218,21.90176249,-99999.0,'11111222,11111222,99999999' 
TABS,ioos:station:wmo:42045:1,2004-10-02T07:30:00Z,26.2168,-96.4998,2.0,19.73342919,20.37662386,-99999.0,'11111222,11111222,99999999' 
TABS,ioos:station:wmo:42045:1,2004-10-02T08:30:00Z,26.2168,-96.4998,2.0,13.9501825,20.94782566,-99999.0,'11111222,11111222,99999999' 
TABS,ioos:station:wmo:42045:1,2004-10-02T09:00:00Z,26.2168,-96.4998,2.0,21.49579124,27.8361276,-99999.0,'11111222,11111222,99999999' 
TABS,ioos:station:wmo:42045:1,2004-10-02T09:30:00Z,26.2168,-96.4998,2.0,23.94383096,24.73891065,-99999.0,'11111222,11111222,99999999' 
TABS,ioos:station:wmo:42045:1,2004-10-02T10:00:00Z,26.2168,-96.4998,2.0,22.78042673,29.67473168,-99999.0,'11111222,11111222,99999999' 
TABS,ioos:station:wmo:42045:1,2004-10-02T10:30:00Z,26.2168,-96.4998,2.0,17.4702281,30.04589822,-99999.0,'11111222,11111222,99999999' 
TABS,ioos:station:wmo:42045:1,2004-10-02T11:00:00Z,26.2168,-96.4998,2.0,17.79021782,31.74811648,-99999.0,'11111222,11111222,99999999' 
TABS,ioos:station:wmo:42045:1,2004-10-02T11:30:00Z,26.2168,-96.4998,2.0,19.6735001,27.65425284,-99999.0,'11111222,11111222,99999999' 
TABS,ioos:station:wmo:42045:1,2004-10-02T12:00:00Z,26.2168,-96.4998,2.0,22.50997979,34.84467965,-99999.0,'11111222,11111222,99999999' 
TABS,ioos:station:wmo:42045:1,2004-10-02T12:30:00Z,26.2168,-96.4998,2.0,27.18538589,43.3822602,-99999.0,'11111222,11111222,99999999' 
TABS,ioos:station:wmo:42045:1,2004-10-02T13:00:00Z,26.2168,-96.4998,2.0,22.83652819,40.9172152,-99999.0,'11111222,11111222,99999999' 
TABS,ioos:station:wmo:42045:1,2004-10-02T13:30:00Z,26.2168,-96.4998,2.0,26.19757709,42.5174717,-99999.0,'11111222,11111222,99999999' 
TABS,ioos:station:wmo:42045:1,2004-10-02T14:00:00Z,26.2168,-96.4998,2.0,26.24213915,45.20954103,-99999.0,'11111222,11111222,99999999' 
TABS,ioos:station:wmo:42045:1,2004-10-02T14:30:00Z,26.2168,-96.4998,2.0,30.56441469,46.48925145,-99999.0,'11111222,11111222,99999999' 
TABS,ioos:station:wmo:42045:1,2004-10-02T15:00:00Z,26.2168,-96.4998,2.0,34.25294166,48.00607045,-99999.0,'11111222,11111222,99999999' 
TABS,ioos:station:wmo:42045:1,2004-10-02T15:30:00Z,26.2168,-96.4998,2.0,38.67061879,50.22079748,-99999.0,'11111222,11111222,99999999' 
TABS,ioos:station:wmo:42045:1,2004-10-02T16:00:00Z,26.2168,-96.4998,2.0,41.5866318,48.57248707,-99999.0,'11111222,11111222,99999999' 
TABS,ioos:station:wmo:42045:1,2004-10-02T16:30:00Z,26.2168,-96.4998,2.0,42.06362166,50.79453711,-99999.0,'11111222,11111222,99999999' 
TABS,ioos:station:wmo:42045:1,2004-10-02T17:00:00Z,26.2168,-96.4998,2.0,44.40110028,48.02224589,-99999.0,'11111222,11111222,99999999' 
TABS,ioos:station:wmo:42045:1,2004-10-02T17:30:00Z,26.2168,-96.4998,2.0,44.87703014,49.37738045,-99999.0,'11111222,11111222,99999999' 
TABS,ioos:station:wmo:42045:1,2004-10-02T18:00:00Z,26.2168,-96.4998,2.0,44.24414255,50.37867207,-99999.0,'11111222,11111222,99999999' 
TABS,ioos:station:wmo:42045:1,2004-10-02T18:30:00Z,26.2168,-96.4998,2.0,48.85620606,52.57219988,-99999.0,'11111222,11111222,99999999' 
TABS,ioos:station:wmo:42045:1,2004-10-02T19:00:00Z,26.2168,-96.4998,2.0,48.00777495,49.99768095,-99999.0,'11111222,11111222,99999999' 
TABS,ioos:station:wmo:42045:1,2004-10-02T19:30:00Z,26.2168,-96.4998,2.0,51.91499367,46.39843532,-99999.0,'11111222,11111222,99999999' 
TABS,ioos:station:wmo:42045:1,2004-10-02T20:00:00Z,26.2168,-96.4998,2.0,50.62631821,45.87179526,-99999.0,'11111222,11111222,99999999' 
TABS,ioos:station:wmo:42045:1,2004-10-02T20:30:00Z,26.2168,-96.4998,2.0,52.69765592,42.91922297,-99999.0,'11111222,11111222,99999999' 
TABS,ioos:station:wmo:42045:1,2004-10-02T21:00:00Z,26.2168,-96.4998,2.0,55.41759209,41.49106048,-99999.0,'11111222,11111222,99999999' 
TABS,ioos:station:wmo:42045:1,2004-10-02T21:30:00Z,26.2168,-96.4998,2.0,58.37022212,43.66649058,-99999.0,'11111222,11111222,99999999' 
TABS,ioos:station:wmo:42045:1,2004-10-02T22:00:00Z,26.2168,-96.4998,2.0,56.94532,35.76926754,-99999.0,'11111222,11111222,99999999' 
TABS,ioos:station:wmo:42045:1,2004-10-02T22:30:00Z,26.2168,-96.4998,2.0,64.6068677,36.51815576,-99999.0,'11111222,11111222,99999999' 
TABS,ioos:station:wmo:42045:1,2004-10-02T23:00:00Z,26.2168,-96.4998,2.0,69.08399725,37.25493256,-99999.0,'11111222,11111222,99999999' 
TABS,ioos:station:wmo:42045:1,2004-10-02T23:30:00Z,26.2168,-96.4998,2.0,78.58090755,32.93188121,-99999.0,'11111222,11111222,99999999' 
TABS,ioos:station:wmo:42045:1,2004-10-03T00:00:00Z,26.2168,-96.4998,2.0,82.84424699,32.35198448,-99999.0,'11111222,11111222,99999999' 
TABS,ioos:station:wmo:42045:1,2004-10-03T00:30:00Z,26.2168,-96.4998,2.0,88.40217891,26.18017953,-99999.0,'11111222,11111222,99999999' 
TABS,ioos:station:wmo:42045:1,2004-10-03T01:00:00Z,26.2168,-96.4998,2.0,88.80816821,21.63468049,-99999.0,'11111222,11111222,99999999' 
TABS,ioos:station:wmo:42045:1,2004-10-03T01:30:00Z,26.2168,-96.4998,2.0,94.84441027,22.97206347,-99999.0,'11111222,11111222,99999999' 
TABS,ioos:station:wmo:42045:1,2004-10-03T02:00:00Z,26.2168,-96.4998,2.0,94.18558906,20.41444831,-99999.0,'11111222,11111222,99999999' 
TABS,ioos:station:wmo:42045:1,2004-10-03T02:30:00Z,26.2168,-96.4998,2.0,93.98560275,17.55244997,-99999.0,'11111222,11111222,99999999' 
TABS,ioos:station:wmo:42045:1,2004-10-03T03:00:00Z,26.2168,-96.4998,2.0,103.4359531,20.14126361,-99999.0,'11111222,11111222,99999999' 
TABS,ioos:station:wmo:42045:1,2004-10-03T03:30:00Z,26.2168,-96.4998,2.0,111.1856747,18.31804575,-99999.0,'11111222,11111222,99999999' 
TABS,ioos:station:wmo:42045:1,2004-10-03T04:00:00Z,26.2168,-96.4998,2.0,111.7272773,17.23439874,-99999.0,'11111222,11111222,99999999' 
TABS,ioos:station:wmo:42045:1,2004-10-03T04:30:00Z,26.2168,-96.4998,2.0,127.1781739,17.09424757,-99999.0,'11111222,11111222,99999999' 
TABS,ioos:station:wmo:42045:1,2004-10-03T05:00:00Z,26.2168,-96.4998,2.0,122.8267778,18.40981532,-99999.0,'11111222,11111222,99999999' 
TABS,ioos:station:wmo:42045:1,2004-10-03T05:30:00Z,26.2168,-96.4998,2.0,133.9216261,17.2847505,-99999.0,'11111222,11111222,99999999' 
TABS,ioos:station:wmo:42045:1,2004-10-03T06:00:00Z,26.2168,-96.4998,2.0,130.9212838,16.50324211,-99999.0,'11111222,11111222,99999999' 
TABS,ioos:station:wmo:42045:1,2004-10-03T06:30:00Z,26.2168,-96.4998,2.0,133.3780575,10.99284313,-99999.0,'11111222,11111222,99999999' 
TABS,ioos:station:wmo:42045:1,2004-10-03T07:00:00Z,26.2168,-96.4998,2.0,127.59863,9.276750509,-99999.0,'11133222,11111222,99999999' 
TABS,ioos:station:wmo:42045:1,2004-10-03T07:30:00Z,26.2168,-96.4998,2.0,149.2564157,6.690209264,-99999.0,'11133222,11111222,99999999' 
TABS,ioos:station:wmo:42045:1,2004-10-03T08:00:00Z,26.2168,-96.4998,2.0,168.886775,1.712103969,-99999.0,'11133222,11111222,99999999' 
TABS,ioos:station:wmo:42045:1,2004-10-03T08:30:00Z,26.2168,-96.4998,2.0,297.1100937,7.526944931,-99999.0,'11133222,11111222,99999999' 
TABS,ioos:station:wmo:42045:1,2004-10-03T09:00:00Z,26.2168,-96.4998,2.0,302.536357,8.813200327,-99999.0,'11133222,11111222,99999999' 
TABS,ioos:station:wmo:42045:1,2004-10-03T09:30:00Z,26.2168,-96.4998,2.0,334.764541,12.33747138,-99999.0,'11111222,11111222,99999999' 
TABS,ioos:station:wmo:42045:1,2004-10-03T10:00:00Z,26.2168,-96.4998,2.0,328.4721079,18.45414317,-99999.0,'11111222,11111222,99999999' 
TABS,ioos:station:wmo:42045:1,2004-10-03T10:30:00Z,26.2168,-96.4998,2.0,317.4331753,20.48920936,-99999.0,'11111222,11111222,99999999' 
TABS,ioos:station:wmo:42045:1,2004-10-03T11:00:00Z,26.2168,-96.4998,2.0,323.6996193,19.72897362,-99999.0,'11111222,11111222,99999999' 
TABS,ioos:station:wmo:42045:1,2004-10-03T11:30:00Z,26.2168,-96.4998,2.0,340.2479863,15.26834962,-99999.0,'11111222,11111222,99999999' 
TABS,ioos:station:wmo:42045:1,2004-10-03T12:00:00Z,26.2168,-96.4998,2.0,336.4129085,22.64168942,-99999.0,'11111222,11111222,99999999' 
TABS,ioos:station:wmo:42045:1,2004-10-03T12:30:00Z,26.2168,-96.4998,2.0,337.2869225,34.41927658,-99999.0,'11111222,11111222,99999999' 
TABS,ioos:station:wmo:42045:1,2004-10-03T13:00:00Z,26.2168,-96.4998,2.0,343.0961804,34.56338236,-99999.0,'11111222,11111222,99999999' 
TABS,ioos:station:wmo:42045:1,2004-10-03T13:30:00Z,26.2168,-96.4998,2.0,348.1432476,38.20516457,-99999.0,'11111222,11111222,99999999' 
TABS,ioos:station:wmo:42045:1,2004-10-03T14:00:00Z,26.2168,-96.4998,2.0,352.8607651,34.43700481,-99999.0,'11111222,11111222,99999999' 
TABS,ioos:station:wmo:42045:1,2004-10-03T14:30:00Z,26.2168,-96.4998,2.0,354.6992963,36.04415348,-99999.0,'11111222,11111222,99999999' 
TABS,ioos:station:wmo:42045:1,2004-10-03T15:00:00Z,26.2168,-96.4998,2.0,0.07642677,30.0700266,-99999.0,'11111222,11111222,99999999' 
TABS,ioos:station:wmo:42045:1,2004-10-03T15:30:00Z,26.2168,-96.4998,2.0,6.378812004,27.99329384,-99999.0,'11111222,11111222,99999999' 
TABS,ioos:station:wmo:42045:1,2004-10-03T16:00:00Z,26.2168,-96.4998,2.0,14.15238056,23.96741955,-99999.0,'11111222,11111222,99999999' 
TABS,ioos:station:wmo:42045:1,2004-10-03T16:30:00Z,26.2168,-96.4998,2.0,20.23490822,20.03658903,-99999.0,'11111222,11111222,99999999' 
TABS,ioos:station:wmo:42045:1,2004-10-03T17:00:00Z,26.2168,-96.4998,2.0,30.73631135,19.42922798,-99999.0,'11111222,11111222,99999999' 
TABS,ioos:station:wmo:42045:1,2004-10-03T17:30:00Z,26.2168,-96.4998,2.0,35.94722826,16.26810991,-99999.0,'11111222,11111222,99999999' 
TABS,ioos:station:wmo:42045:1,2004-10-03T18:00:00Z,26.2168,-96.4998,2.0,47.29763847,18.69679117,-99999.0,'11111222,11111222,99999999' 
TABS,ioos:station:wmo:42045:1,2004-10-03T18:30:00Z,26.2168,-96.4998,2.0,56.03582627,16.8076084,-99999.0,'11111222,11111222,99999999' 
TABS,ioos:station:wmo:42045:1,2004-10-03T19:00:00Z,26.2168,-96.4998,2.0,57.49671315,13.6596486,-99999.0,'11111222,11111222,99999999' 
TABS,ioos:station:wmo:42045:1,2004-10-03T19:30:00Z,26.2168,-96.4998,2.0,69.86609497,15.25204576,-99999.0,'11111222,11111222,99999999' 
TABS,ioos:station:wmo:42045:1,2004-10-03T20:00:00Z,26.2168,-96.4998,2.0,85.75703636,16.08408219,-99999.0,'11111222,11111222,99999999' 
TABS,ioos:station:wmo:42045:1,2004-10-03T20:30:00Z,26.2168,-96.4998,2.0,90.04363719,13.13000381,-99999.0,'11111222,11111222,99999999' 
TABS,ioos:station:wmo:42045:1,2004-10-03T21:00:00Z,26.2168,-96.4998,2.0,94.58846656,14.12527168,-99999.0,'11111222,11111222,99999999' 
TABS,ioos:station:wmo:42045:1,2004-10-03T21:30:00Z,26.2168,-96.4998,2.0,93.49400227,20.83873557,-99999.0,'11111222,11111222,99999999' 
TABS,ioos:station:wmo:42045:1,2004-10-03T22:00:00Z,26.2168,-96.4998,2.0,101.6336068,18.39794826,-99999.0,'11111222,11111222,99999999' 
TABS,ioos:station:wmo:42045:1,2004-10-03T22:30:00Z,26.2168,-96.4998,2.0,113.8585775,19.60535131,-99999.0,'11111222,11111222,99999999' 
TABS,ioos:station:wmo:42045:1,2004-10-03T23:00:00Z,26.2168,-96.4998,2.0,120.498039,19.62523121,-99999.0,'11111222,11111222,99999999' 
TABS,ioos:station:wmo:42045:1,2004-10-03T23:30:00Z,26.2168,-96.4998,2.0,120.1551036,15.06936628,-99999.0,'11111222,11111222,99999999' 
TABS,ioos:station:wmo:42045:1,2004-10-04T00:00:00Z,26.2168,-96.4998,2.0,124.4504136,15.25559897,-99999.0,'11111222,11111222,99999999' 
TABS,ioos:station:wmo:42045:1,2004-10-04T00:30:00Z,26.2168,-96.4998,2.0,119.7895041,11.13088047,-99999.0,'11111222,11111222,99999999' 
TABS,ioos:station:wmo:42045:1,2004-10-04T01:00:00Z,26.2168,-96.4998,2.0,144.2854661,15.07506551,-99999.0,'11111222,11111222,99999999' 
TABS,ioos:station:wmo:42045:1,2004-10-04T01:30:00Z,26.2168,-96.4998,2.0,157.6153833,14.41627552,-99999.0,'11111222,11111222,99999999' 
TABS,ioos:station:wmo:42045:1,2004-10-04T02:00:00Z,26.2168,-96.4998,2.0,176.9219617,16.20337311,-99999.0,'11111222,11111222,99999999' 
TABS,ioos:station:wmo:42045:1,2004-10-04T02:30:00Z,26.2168,-96.4998,2.0,220.4427144,13.34995131,-99999.0,'11111222,11111222,99999999' 
TABS,ioos:station:wmo:42045:1,2004-10-04T03:00:00Z,26.2168,-96.4998,2.0,230.5179494,14.04458971,-99999.0,'11111222,11111222,99999999' 
TABS,ioos:station:wmo:42045:1,2004-10-04T03:30:00Z,26.2168,-96.4998,2.0,228.6040964,8.998055345,-99999.0,'11133222,11111222,99999999' 
TABS,ioos:station:wmo:42045:1,2004-10-04T04:00:00Z,26.2168,-96.4998,2.0,239.9998885,9.480068565,-99999.0,'11133222,11111222,99999999' 
TABS,ioos:station:wmo:42045:1,2004-10-04T04:30:00Z,26.2168,-96.4998,2.0,264.5809956,12.49583931,-99999.0,'11111222,11111222,99999999' 
TABS,ioos:station:wmo:42045:1,2004-10-04T05:00:00Z,26.2168,-96.4998,2.0,271.9310038,13.35758212,-99999.0,'11111222,11111222,99999999' 
TABS,ioos:station:wmo:42045:1,2004-10-04T05:30:00Z,26.2168,-96.4998,2.0,280.8694905,15.80350594,-99999.0,'11111222,11111222,99999999' 
TABS,ioos:station:wmo:42045:1,2004-10-04T06:00:00Z,26.2168,-96.4998,2.0,291.5454422,13.69702522,-99999.0,'11111222,11111222,99999999' 
TABS,ioos:station:wmo:42045:1,2004-10-04T06:30:00Z,26.2168,-96.4998,2.0,293.0930993,17.05673474,-99999.0,'11111222,11111222,99999999' 
TABS,ioos:station:wmo:42045:1,2004-10-04T07:00:00Z,26.2168,-96.4998,2.0,298.168201,20.14591025,-99999.0,'11111222,11111222,99999999' 
TABS,ioos:station:wmo:42045:1,2004-10-04T07:30:00Z,26.2168,-96.4998,2.0,295.3873911,20.01256605,-99999.0,'11111222,11111222,99999999' 
TABS,ioos:station:wmo:42045:1,2004-10-04T08:00:00Z,26.2168,-96.4998,2.0,300.2440171,19.37744049,-99999.0,'11111222,11111222,99999999' 
TABS,ioos:station:wmo:42045:1,2004-10-04T08:30:00Z,26.2168,-96.4998,2.0,300.4355082,20.07647877,-99999.0,'11111222,11111222,99999999' 
TABS,ioos:station:wmo:42045:1,2004-10-04T09:00:00Z,26.2168,-96.4998,2.0,295.2923829,18.1166222,-99999.0,'11111222,11111222,99999999' 
TABS,ioos:station:wmo:42045:1,2004-10-04T09:30:00Z,26.2168,-96.4998,2.0,301.8958588,16.03037741,-99999.0,'11111222,11111222,99999999' 
TABS,ioos:station:wmo:42045:1,2004-10-04T10:00:00Z,26.2168,-96.4998,2.0,311.3598218,16.1475478,-99999.0,'11111222,11111222,99999999' 
TABS,ioos:station:wmo:42045:1,2004-10-04T10:30:00Z,26.2168,-96.4998,2.0,304.7021481,16.33569405,-99999.0,'11111222,11111222,99999999' 
TABS,ioos:station:wmo:42045:1,2004-10-04T11:00:00Z,26.2168,-96.4998,2.0,319.7639462,17.71056182,-99999.0,'11111222,11111222,99999999' 
TABS,ioos:station:wmo:42045:1,2004-10-04T11:30:00Z,26.2168,-96.4998,2.0,321.5696323,17.18237469,-99999.0,'11111222,11111222,99999999' 
TABS,ioos:station:wmo:42045:1,2004-10-04T12:00:00Z,26.2168,-96.4998,2.0,339.1948417,15.597051,-99999.0,'11111222,11111222,99999999' 
TABS,ioos:station:wmo:42045:1,2004-10-04T12:30:00Z,26.2168,-96.4998,2.0,358.552994,21.77694653,-99999.0,'11111222,11111222,99999999' 
TABS,ioos:station:wmo:42045:1,2004-10-04T13:00:00Z,26.2168,-96.4998,2.0,15.80685423,24.96398205,-99999.0,'11111222,11111222,99999999' 
TABS,ioos:station:wmo:42045:1,2004-10-04T13:30:00Z,26.2168,-96.4998,2.0,17.1162302,22.11966772,-99999.0,'11111222,11111222,99999999' 
TABS,ioos:station:wmo:42045:1,2004-10-04T14:00:00Z,26.2168,-96.4998,2.0,33.71114825,22.75657707,-99999.0,'11111222,11111222,99999999' 
TABS,ioos:station:wmo:42045:1,2004-10-04T14:30:00Z,26.2168,-96.4998,2.0,41.04728167,23.69494672,-99999.0,'11111222,11111222,99999999' 
TABS,ioos:station:wmo:42045:1,2004-10-04T15:00:00Z,26.2168,-96.4998,2.0,47.94009666,23.98835134,-99999.0,'11111222,11111222,99999999' 
TABS,ioos:station:wmo:42045:1,2004-10-04T15:30:00Z,26.2168,-96.4998,2.0,49.30415062,21.01082816,-99999.0,'11111222,11111222,99999999' 
TABS,ioos:station:wmo:42045:1,2004-10-04T16:00:00Z,26.2168,-96.4998,2.0,70.40087212,22.56750983,-99999.0,'11111222,11111222,99999999' 
TABS,ioos:station:wmo:42045:1,2004-10-04T16:30:00Z,26.2168,-96.4998,2.0,80.1831839,22.0529023,-99999.0,'11111222,11111222,99999999' 